Terminal Aerodrome Forecast
Issued by NWS

Home | Current Version | Previous Version | Text Only | Print | Product List | Glossary On
Versions: 1 2 3 4 5 6 7 8 9 10 11 12 13 14 15 16 17 18 19 20 21 22 23 24 25 26 27 28 29 30 31 32 33 34 35 36 37 38 39 40
000
FTUS44 KLIX 192300
TAFHDC
TAF
KHDC 192332Z 2000/2024 VRB03KT P6SM SCT045 SCT110
     FM200200 00000KT P6SM SCT250
      TEMPO 2010/2013 4SM BR
     FM201300 06007KT P6SM SCT250
     FM201700 07010KT P6SM SCT045=

USA.gov is the U.S. government's official web portal to all federal, state and local government web resources and services.